Zurück zum Katalog

SITRO-AIS-43

AktivKommunikationPO
NORAD 61755·PAYLOAD·🇷🇺 Russia
Dieser Satellitenname wurde noch nicht durch offizielle Quellen bestätigt.

Gestartet Nov 4, 2024 von Vostochny Cosmodrome

Loading…

Nächste Überflüge (nächste 24 Stunden)

TLE

AktuellSource: Space-Track

Epoche: Sep 14, 2026, 21:52 UTC

1 61755U 24199W   26257.91138440  .00419114  72738-4  10477-2 0  9993
2 61755  97.2641 142.1123 0003452 154.3219 205.8230 15.95743687151954

Verfolge SITRO-AIS-43 in Echtzeit mit AllMySat

Download on the App Store